This is the latest recevied weather packets stored in our database for station/object K5NWZ. If no packets are shown the sender has not sent any weather packets the latest 10 day(s).
| Time | Temp. | Humidity | Pressure | Rain* | Wind** | Luminosity | Snow |
|---|---|---|---|---|---|---|---|
| 1778074591 | -0.56° C | 98% | 1028.6 hPa | 0 mm | - | 21 W/m² | - |
| 1778074288 | -0.56° C | 98% | 1028.4 hPa | 0 mm | - | 20 W/m² | - |
| 1778073985 | -0.56° C | 98% | 1028.3 hPa | 0 mm | - | 18 W/m² | - |
| 1778073682 | -0.56° C | 98% | 1028.1 hPa | 0 mm | - | 17 W/m² | - |
| 1778073380 | -0.56° C | 98% | 1028 hPa | 0 mm | - | 13 W/m² | - |
| 1778073075 | -0.56° C | 98% | 1028.1 hPa | 0 mm | - | 13 W/m² | - |
| 1778072773 | -0.56° C | 98% | 1027.9 hPa | 0 mm | - | 13 W/m² | - |
| 1778072470 | -0.56° C | 98% | 1028.1 hPa | 0 mm | - | 11 W/m² | - |
| 1778072168 | -0.56° C | 97% | 1028 hPa | 0 mm | - | 9 W/m² | - |
| 1778071866 | -0.56° C | 97% | 1028 hPa | 0 mm | - | 6 W/m² | - |
| 1778071563 | -0.56° C | 97% | 1027.6 hPa | 0 mm | - | 8 W/m² | - |
| 1778071261 | -0.56° C | 97% | 1027.6 hPa | 0 mm | - | 5 W/m² | - |
| 1778070958 | -0.56° C | 97% | 1027.6 hPa | 0 mm | - | 5 W/m² | - |
| 1778070657 | -0.56° C | 97% | 1027.6 hPa | 1.27 mm | - | 5 W/m² | - |
| 1778070353 | -0.56° C | 97% | 1027.6 hPa | 1.27 mm | - | 4 W/m² | - |
| 1778070051 | -0.56° C | 97% | 1027.5 hPa | 0 mm | - | 3 W/m² | - |
| 1778069748 | -0.56° C | 97% | 1027.5 hPa | 0 mm | - | 2 W/m² | - |
| 1778069444 | -0.56° C | 97% | 1027.5 hPa | 0 mm | - | 1 W/m² | - |
| 1778069143 | -0.56° C | 97% | 1027.7 hPa | 0 mm | - | 1 W/m² | - |
| 1778068839 | -0.56° C | 97% | 1027.4 hPa | 0 mm | - | 1 W/m² | - |
| 1778068538 | -0.56° C | 97% | 1027.5 hPa | 0 mm | - | 0 W/m² | - |
| 1778068236 | -0.56° C | 97% | 1027.6 hPa | 0 mm | - | 0 W/m² | - |
| 1778067933 | -0.56° C | 97% | 1027.5 hPa | 0 mm | - | 0 W/m² | - |
| 1778067631 | -0.56° C | 97% | 1027.5 hPa | 0 mm | - | 0 W/m² | - |
| 1778067329 | -0.56° C | 97% | 1027.4 hPa | 0 mm | - | 0 W/m² | - |
* Rain latest hour (hover to see other rain measurements)
** Current wind speed in m/s (hover to see current wind gust speed)